| time (UTC) | temp C | wind direction | speed KPH | gust KPH | rain 1hr cm | rain 24hr cm | rain mn cm | humidity % | barometer mb |
| 20260505033052 | 22 | 189 | 16.1 | 22.5 | 0.00 | 0.00 | 0.00 | 81 | 1009.1 |
| 20260505032603 | 22 | 187 | 14.5 | 20.9 | 0.00 | 0.00 | 0.00 | 81 | 1009.2 |
| 20260505031603 | 22 | 165 | 14.5 | 27.4 | 0.00 | 0.00 | 0.00 | 80 | 1009.0 |
| 20260505031053 | 22 | 158 | 14.5 | 27.4 | 0.00 | 0.00 | 0.00 | 80 | 1009.1 |
| 20260505030555 | 22 | 186 | 14.5 | 17.7 | 0.00 | 0.00 | 0.00 | 79 | 1009.1 |
| 20260505030025 | 22 | 175 | 14.5 | 19.3 | 0.00 | 0.00 | 0.00 | 79 | 1009.2 |
| 20260505025528 | 22 | 169 | 12.9 | 20.9 | 0.00 | 0.00 | 0.00 | 79 | 1009.2 |
| 20260505024556 | 23 | 186 | 14.5 | 30.6 | 0.00 | 0.00 | 0.00 | 78 | 1009.1 |
| 20260505024059 | 23 | 162 | 16.1 | 24.1 | 0.00 | 0.00 | 0.00 | 78 | 1009.0 |
| 20260505023118 | 23 | 188 | 16.1 | 27.4 | 0.00 | 0.00 | 0.00 | 78 | 1009.0 |
| 20260505022528 | 23 | 166 | 17.7 | 27.4 | 0.00 | 0.00 | 0.00 | 78 | 1008.8 |
| 20260505021027 | 23 | 189 | 16.1 | 29.0 | 0.00 | 0.00 | 0.00 | 77 | 1008.9 |
| 20260505020633 | 23 | 167 | 12.9 | 27.4 | 0.00 | 0.00 | 0.00 | 77 | 1008.9 |
| 20260505020040 | 23 | 157 | 11.3 | 16.1 | 0.00 | 0.00 | 0.00 | 77 | 1008.9 |
| 20260505015542 | 23 | 169 | 11.3 | 24.1 | 0.00 | 0.00 | 0.00 | 77 | 1008.8 |
| 20260505014603 | 23 | 170 | 12.9 | 19.3 | 0.00 | 0.00 | 0.00 | 76 | 1008.7 |
| 20260505014113 | 23 | 165 | 12.9 | 22.5 | 0.00 | 0.00 | 0.00 | 75 | 1008.7 |
| 20260505013623 | 23 | 190 | 14.5 | 22.5 | 0.00 | 0.00 | 0.00 | 76 | 1008.6 |
| 20260505013045 | 23 | 175 | 14.5 | 19.3 | 0.00 | 0.00 | 0.00 | 75 | 1008.6 |
| 20260505012553 | 24 | 169 | 12.9 | 29.0 | 0.00 | 0.00 | 0.00 | 74 | 1008.6 |
| 20260505011553 | 24 | 175 | 17.7 | 27.4 | 0.00 | 0.00 | 0.00 | 74 | 1008.5 |
| 20260505011058 | 24 | 123 | 11.3 | 27.4 | 0.00 | 0.00 | 0.00 | 73 | 1008.5 |
| 20260505010057 | 25 | 190 | 16.1 | 25.7 | 0.00 | 0.00 | 0.00 | 73 | 1008.3 |
| 20260505005546 | 25 | 190 | 16.1 | 22.5 | 0.00 | 0.00 | 0.00 | 73 | 1008.4 |
| 20260505004604 | 25 | 194 | 12.9 | 25.7 | 0.00 | 0.00 | 0.00 | 73 | 1008.4 |
| 20260505004117 | 25 | 198 | 16.1 | 25.7 | 0.00 | 0.00 | 0.00 | 72 | 1008.4 |
| 20260505003619 | 25 | 141 | 16.1 | 22.5 | 0.00 | 0.00 | 0.00 | 72 | 1008.4 |
| 20260505003030 | 25 | 220 | 11.3 | 25.7 | 0.00 | 0.00 | 0.00 | 72 | 1008.4 |
| 20260505002541 | 25 | 155 | 16.1 | 25.7 | 0.00 | 0.00 | 0.00 | 72 | 1008.5 |
| 20260505001601 | 25 | 192 | 17.7 | 24.1 | 0.00 | 0.00 | 0.00 | 71 | 1008.6 |
| 20260505001105 | 25 | 204 | 14.5 | 22.5 | 0.00 | 0.00 | 0.00 | 71 | 1008.6 |
| 20260505000121 | 25 | 182 | 17.7 | 30.6 | 0.00 | 0.00 | 0.00 | 71 | 1008.7 |
| 20260504235610 | 25 | 195 | 20.9 | 30.6 | 0.00 | 0.00 | 0.00 | 71 | 1008.6 |
| 20260504235026 | 25 | 161 | 16.1 | 25.7 | 0.00 | 0.00 | 0.00 | 71 | 1008.6 |
| 20260504234528 | 25 | 166 | 14.5 | 25.7 | 0.00 | 0.00 | 0.00 | 71 | 1008.8 |
| 20260504234114 | 25 | 143 | 20.9 | 29.0 | 0.00 | 0.00 | 0.00 | 71 | 1008.8 |
| 20260504233621 | 25 | 150 | 17.7 | 27.4 | 0.00 | 0.00 | 0.00 | 71 | 1008.9 |
| 20260504233025 | 25 | 179 | 19.3 | 27.4 | 0.00 | 0.00 | 0.00 | 70 | 1008.8 |
| 20260504232527 | 26 | 192 | 16.1 | 30.6 | 0.00 | 0.00 | 0.00 | 70 | 1009.0 |
| 20260504231554 | 26 | 190 | 20.9 | 30.6 | 0.00 | 0.00 | 0.00 | 70 | 1008.8 |
| 20260504231058 | 26 | 180 | 17.7 | 29.0 | 0.00 | 0.00 | 0.00 | 70 | 1008.9 |
| 20260504230608 | 26 | 171 | 16.1 | 29.0 | 0.00 | 0.00 | 0.00 | 69 | 1009.0 |
| 20260504230028 | 26 | 163 | 17.7 | 29.0 | 0.00 | 0.00 | 0.00 | 68 | 1009.0 |
| 20260504225538 | 26 | 179 | 20.9 | 32.2 | 0.00 | 0.00 | 0.00 | 68 | 1008.9 |
| 20260504224541 | 26 | 183 | 20.9 | 27.4 | 0.00 | 0.00 | 0.00 | 66 | 1009.2 |
| 20260504224051 | 26 | 166 | 14.5 | 25.7 | 0.00 | 0.00 | 0.00 | 66 | 1009.2 |
| 20260504223053 | 26 | 132 | 16.1 | 27.4 | 0.00 | 0.00 | 0.00 | 66 | 1009.2 |
| 20260504222557 | 26 | 162 | 20.9 | 27.4 | 0.00 | 0.00 | 0.00 | 64 | 1009.3 |
| 20260504222105 | 27 | 190 | 19.3 | 27.4 | 0.00 | 0.00 | 0.00 | 62 | 1009.1 |
| 20260504221532 | 27 | 191 | 17.7 | 29.0 | 0.00 | 0.00 | 0.00 | 63 | 1009.2 |
| 20260504221034 | 27 | 150 | 19.3 | 29.0 | 0.00 | 0.00 | 0.00 | 63 | 1009.2 |
| 20260504220059 | 27 | 151 | 14.5 | 25.7 | 0.00 | 0.00 | 0.00 | 64 | 1009.2 |
| 20260504215609 | 27 | 196 | 14.5 | 25.7 | 0.00 | 0.00 | 0.00 | 64 | 1009.3 |
| 20260504215120 | 27 | 183 | 17.7 | 30.6 | 0.00 | 0.00 | 0.00 | 64 | 1009.5 |
| 20260504214540 | 27 | 142 | 20.9 | 30.6 | 0.00 | 0.00 | 0.00 | 63 | 1009.5 |
| 20260504214052 | 26 | 194 | 17.7 | 29.0 | 0.00 | 0.00 | 0.00 | 64 | 1009.6 |
| 20260504213050 | 26 | 185 | 17.7 | 25.7 | 0.00 | 0.00 | 0.00 | 65 | 1009.8 |
| 20260504212535 | 26 | 177 | 17.7 | 24.1 | 0.00 | 0.00 | 0.00 | 63 | 1009.9 |
| 20260504211559 | 26 | 169 | 16.1 | 25.7 | 0.00 | 0.00 | 0.00 | 64 | 1010.1 |
| 20260504211109 | 26 | 172 | 12.9 | 24.1 | 0.00 | 0.00 | 0.00 | 64 | 1010.3 |
| 20260504210615 | 26 | 185 | 16.1 | 24.1 | 0.00 | 0.00 | 0.00 | 64 | 1010.3 |
| 20260504210040 | 26 | 215 | 16.1 | 20.9 | 0.00 | 0.00 | 0.00 | 65 | 1010.5 |
| 20260504205544 | 26 | 195 | 14.5 | 19.3 | 0.00 | 0.00 | 0.00 | 64 | 1010.5 |
| 20260504204553 | 26 | 225 | 17.7 | 22.5 | 0.00 | 0.00 | 0.00 | 63 | 1010.6 |
| 20260504204057 | 26 | 199 | 16.1 | 20.9 | 0.00 | 0.00 | 0.00 | 64 | 1010.8 |
| 20260504203607 | 26 | 201 | 12.9 | 20.9 | 0.00 | 0.00 | 0.00 | 64 | 1010.8 |
| 20260504203038 | 26 | 186 | 17.7 | 24.1 | 0.00 | 0.00 | 0.00 | 65 | 1010.9 |
| 20260504202541 | 26 | 185 | 17.7 | 24.1 | 0.00 | 0.00 | 0.00 | 64 | 1011.0 |
| 20260504201601 | 26 | 225 | 16.1 | 25.7 | 0.00 | 0.00 | 0.00 | 63 | 1011.1 |
| 20260504201050 | 26 | 204 | 19.3 | 30.6 | 0.00 | 0.00 | 0.00 | 64 | 1011.1 |
| 20260504200051 | 26 | 185 | 17.7 | 27.4 | 0.00 | 0.00 | 0.00 | 64 | 1011.3 |
| 20260504195554 | 26 | 180 | 17.7 | 22.5 | 0.00 | 0.00 | 0.00 | 63 | 1011.4 |
| 20260504195104 | 26 | 213 | 14.5 | 20.9 | 0.00 | 0.00 | 0.00 | 64 | 1011.5 |
| 20260504194526 | 26 | 206 | 12.9 | 25.7 | 0.00 | 0.00 | 0.00 | 65 | 1011.7 |
| 20260504194137 | 26 | 196 | 16.1 | 25.7 | 0.00 | 0.00 | 0.00 | 64 | 1011.9 |
| 20260504193622 | 26 | 167 | 17.7 | 25.7 | 0.00 | 0.00 | 0.00 | 65 | 1011.9 |
| 20260504193053 | 26 | 189 | 19.3 | 25.7 | 0.00 | 0.00 | 0.00 | 65 | 1012.0 |
| 20260504192542 | 26 | 172 | 16.1 | 25.7 | 0.00 | 0.00 | 0.00 | 65 | 1011.9 |
| 20260504191602 | 26 | 211 | 16.1 | 27.4 | 0.00 | 0.00 | 0.00 | 66 | 1012.1 |
| 20260504191044 | 26 | 171 | 19.3 | 27.4 | 0.00 | 0.00 | 0.00 | 65 | 1012.1 |
| 20260504190045 | 25 | 184 | 17.7 | 27.4 | 0.00 | 0.00 | 0.00 | 65 | 1012.3 |
| 20260504185537 | 25 | 162 | 14.5 | 27.4 | 0.00 | 0.00 | 0.00 | 65 | 1012.3 |
| 20260504184555 | 25 | 159 | 16.1 | 22.5 | 0.00 | 0.00 | 0.00 | 67 | 1012.6 |
| 20260504184059 | 25 | 171 | 14.5 | 27.4 | 0.00 | 0.00 | 0.00 | 66 | 1012.6 |
| 20260504183109 | 25 | 168 | 12.9 | 27.4 | 0.00 | 0.00 | 0.00 | 65 | 1012.8 |
| 20260504182550 | 25 | 158 | 12.9 | 24.1 | 0.00 | 0.00 | 0.00 | 67 | 1012.8 |
| 20260504181611 | 25 | 195 | 16.1 | 29.0 | 0.00 | 0.00 | 0.00 | 66 | 1012.9 |
| 20260504181100 | 25 | 221 | 17.7 | 29.0 | 0.00 | 0.00 | 0.00 | 65 | 1013.0 |
| 20260504180600 | 25 | 180 | 12.9 | 24.1 | 0.00 | 0.00 | 0.00 | 67 | 1013.1 |
| 20260504180030 | 25 | 178 | 16.1 | 27.4 | 0.00 | 0.00 | 0.00 | 64 | 1013.1 |
| 20260504175541 | 25 | 207 | 16.1 | 27.4 | 0.00 | 0.00 | 0.00 | 64 | 1013.0 |
| 20260504175143 | 25 | 198 | 20.9 | 27.4 | 0.00 | 0.00 | 0.00 | 64 | 1013.1 |
| 20260504174548 | 25 | 183 | 14.5 | 29.0 | 0.00 | 0.00 | 0.00 | 64 | 1013.2 |
| 20260504174100 | 25 | 196 | 17.7 | 29.0 | 0.00 | 0.00 | 0.00 | 62 | 1013.3 |
| 20260504173601 | 25 | 207 | 14.5 | 29.0 | 0.00 | 0.00 | 0.00 | 62 | 1013.4 |
| 20260504173032 | 25 | 163 | 20.9 | 35.4 | 0.00 | 0.00 | 0.00 | 64 | 1013.3 |
| 20260504172632 | 25 | 201 | 19.3 | 35.4 | 0.00 | 0.00 | 0.00 | 64 | 1013.4 |
| 20260504172119 | 25 | 186 | 20.9 | 32.2 | 0.00 | 0.00 | 0.00 | 63 | 1013.3 |
| 20260504171528 | 24 | 171 | 22.5 | 32.2 | 0.00 | 0.00 | 0.00 | 64 | 1013.5 |
| 20260504171030 | 24 | 188 | 19.3 | 30.6 | 0.00 | 0.00 | 0.00 | 64 | 1013.6 |
| 20260504170641 | 24 | 150 | 19.3 | 30.6 | 0.00 | 0.00 | 0.00 | 65 | 1013.7 |
| 20260504151053 | 22 | 229 | 19.3 | 27.4 | 0.00 | 0.00 | 0.00 | 71 | 1014.6 |
| 20260504141028 | 20 | 187 | 16.1 | 24.1 | 0.00 | 0.00 | 0.00 | 74 | 1014.7 |
| 20260504130623 | 17 | 170 | 11.3 | 17.7 | 0.00 | 0.00 | 0.00 | 77 | 1014.9 |
| 20260504110103 | 15 | 173 | 9.7 | 12.9 | 0.00 | 0.00 | 0.00 | 81 | 1014.1 |
| 20260504100105 | 15 | 167 | 14.5 | 19.3 | 0.00 | 0.00 | 0.00 | 80 | 1014.3 |
| 20260504081619 | 16 | 186 | 12.9 | 16.1 | 0.00 | 0.00 | 0.00 | 77 | 1014.8 |
| 20260504081122 | 16 | 159 | 12.9 | 16.1 | 0.00 | 0.00 | 0.00 | 77 | 1014.8 |
| 20260504080605 | 16 | 183 | 14.5 | 16.1 | 0.00 | 0.00 | 0.00 | 76 | 1014.9 |
| 20260504050545 | 17 | 171 | 12.9 | 16.1 | 0.00 | 0.00 | 0.00 | 73 | 1016.9 |
| 20260504045542 | 18 | 180 | 12.9 | 19.3 | 0.00 | 0.00 | 0.00 | 72 | 1017.0 |
| 20260504044548 | 18 | 180 | 12.9 | 16.1 | 0.00 | 0.00 | 0.00 | 72 | 1017.0 |
| 20260504044053 | 18 | 171 | 12.9 | 17.7 | 0.00 | 0.00 | 0.00 | 72 | 1017.0 |
| 20260504043644 | 18 | 186 | 12.9 | 17.7 | 0.00 | 0.00 | 0.00 | 72 | 1017.1 |
| 20260504043051 | 18 | 184 | 11.3 | 17.7 | 0.00 | 0.00 | 0.00 | 72 | 1017.2 |
| 20260504042534 | 18 | 175 | 11.3 | 19.3 | 0.00 | 0.00 | 0.00 | 71 | 1017.3 |
| 20260504041603 | 18 | 177 | 14.5 | 17.7 | 0.00 | 0.00 | 0.00 | 71 | 1017.3 |
| 20260504041045 | 18 | 181 | 12.9 | 19.3 | 0.00 | 0.00 | 0.00 | 71 | 1017.3 |
| 20260504040538 | 18 | 178 | 12.9 | 19.3 | 0.00 | 0.00 | 0.00 | 71 | 1017.4 |
| 20260504040139 | 18 | 178 | 11.3 | 17.7 | 0.00 | 0.00 | 0.00 | 71 | 1017.4 |
| 20260504035529 | 18 | 171 | 12.9 | 17.7 | 0.00 | 0.00 | 0.00 | 70 | 1017.3 |
| 20260504035033 | 18 | 175 | 12.9 | 17.7 | 0.00 | 0.00 | 0.00 | 71 | 1017.3 |
| 20260504034646 | 18 | 170 | 14.5 | 17.7 | 0.00 | 0.00 | 0.00 | 71 | 1017.3 |
| 20260504034035 | 19 | 178 | 9.7 | 17.7 | 0.00 | 0.00 | 0.00 | 70 | 1017.4 |